Location: Weatherford
(35.5260°N, 98.7070°W)
Time: 04:51:28
(UTC-05:00)

OPAL - Visible Passes

Search period start: 31 October 2014 00:00
Search period end: 09 November 2014 23:00
Orbit: 744 x 797 km, 100.2° (Epoch: 31 October)

Date Brightness Start Highest point End Pass type
(mag) Time Alt. Az. Time Alt. Az. Time Alt. Az.
31 Oct 9.9 04:55:30 10° ESE 04:58:58 19° ENE 05:02:25 10° NNE visible
31 Oct 7.7 06:32:33 10° S 06:37:28 47° WSW 06:42:21 10° NNW visible
31 Oct 10.3 20:25:50 10° NNW 20:28:29 15° WNW 20:31:09 10° W visible
01 Nov 7.6 05:57:07 10° SSE 06:02:14 76° ENE 06:07:17 10° N visible
01 Nov 9.2 19:49:14 10° N 19:53:36 32° WNW 19:57:57 10° SW visible
02 Nov 9.1 04:22:37 10° SE 04:27:09 33° ENE 04:31:38 10° N visible
02 Nov 8.5 06:01:50 10° SSW 06:06:00 25° W 06:10:08 10° NW visible
02 Nov 7.7 18:13:34 10° N 18:18:31 75° WNW 18:23:27 10° SSW visible
03 Nov 10.2 03:49:23 10° E 03:52:15 15° ENE 03:55:05 10° NNE visible
03 Nov 7.5 05:25:36 10° S 05:30:38 58° WSW 05:35:37 10° NNW visible
03 Nov 10.1 19:18:29 10° NNW 19:21:45 18° WNW 19:25:02 10° WSW visible
04 Nov 7.9 04:50:24 10° SSE 04:55:25 61° ENE 05:00:23 10° N visible
04 Nov 9.2 06:32:16 10° WSW 06:34:36 13° W 06:36:57 10° WNW visible
04 Nov 8.8 18:42:13 10° N 18:46:49 39° WNW 18:51:24 10° SW visible
05 Nov 9.4 04:16:10 10° ESE 04:20:23 27° ENE 04:24:34 10° N visible
05 Nov 8.2 05:54:38 10° SSW 05:59:07 31° W 06:03:34 10° NW visible
05 Nov 7.5 18:06:42 10° NNE 18:11:41 88° ESE 18:16:39 10° SSW visible
06 Nov 10.4 03:43:34 10° E 03:45:32 12° ENE 03:47:30 10° NE visible
06 Nov 7.4 05:18:43 10° S 05:23:47 73° WSW 05:28:49 10° NNW visible
06 Nov 9.8 19:11:16 10° NNW 19:15:00 22° WNW 19:18:45 10° WSW visible
07 Nov 8.3 04:43:45 10° SE 04:48:37 49° ENE 04:53:27 10° N visible
07 Nov 9.0 06:24:32 10° SW 06:27:41 17° W 06:30:50 10° WNW visible
07 Nov 8.4 18:35:14 10° N 18:40:00 49° WNW 18:44:47 10° SW visible
08 Nov 9.7 04:09:48 10° ESE 04:13:37 22° ENE 04:17:25 10° NNE visible
08 Nov 8.0 05:47:32 10° SSW 05:52:14 38° W 05:56:54 10° NNW visible
08 Nov 7.4 17:59:53 10° NNE 18:04:50 71° ESE 18:09:47 10° S visible
08 Nov 10.3 19:41:12 10° NW 19:43:05 12° WNW 19:44:58 10° W visible
09 Nov 7.4 05:11:52 10° SSE 05:16:57 89° WSW 05:21:51 11° NNW visible
09 Nov 9.5 19:04:07 10° N 19:08:14 27° WNW 19:12:22 10° WSW visible
